Notices

What's New in latest Release from April 7th, 2021:

- Updated Glossary, including Speed of Maximum Gust, and Total Hourly Precipitation

- Updated national and regional climate services offices contacts and prices information

- Addition of station inventory lists for 1981-2010, 1971-2000, and 1961-1990 Normals.

If you haven't already, please take our survey and provide feedback about our website: https://eccc.sondage-survey.ca/f/LanguageSelection.aspx?s=442ca660-fcf1-47c0-95a9-59707d6fd709

Hourly Data Report for April 26, 2016

MIRAMICHI RCS
NEW BRUNSWICK

47°00'34.000" N
65°27'54.000" W
33.00 m
8100989
71744
ACQ

Download Data

Hourly Data (April 2016)
Hourly Data Report for April 26, 2016
TIME
LST
Temp Definition
°C
Dew Point Definition
°C
Rel Hum Definition
%
Precip. Amount Definition
mm

Wind Dir Definition
10's deg

Wind Spd Definition
km/h
Visibility Definition
km
Stn Press Definition
kPa
Hmdx Definition


Wind Chill Definition


Weather Definition


00:00 -2.2 -8.8 60 0.0 24 10   100.94   -6 LegendNANA
01:00 -2.3 -8.7 61 0.0 26 5   100.94   -4 LegendNANA
02:00 -2.8 -8.7 64 0.0 29 6   100.93   -5 LegendNANA
03:00 -3.3 -8.3 68 0.0 28 7   100.91   -6 LegendNANA
04:00 -3.3 -8.5 67 0.0 27 8   100.92   -7 LegendNANA
05:00 -4.9 -8.9 73 0.0 26 5   100.93   -7 LegendNANA
06:00 -3.1 -9.0 64 0.0 29 8   100.93   -6 LegendNANA
07:00 -1.7 -8.8 58 0.0 30 6   100.91   -4 LegendNANA
08:00 0.4 -9.7 46 0.0 29 11   100.90     LegendNANA
09:00 1.7 -11.5 37 0.0 29 13   100.84     LegendNANA
10:00 2.4 -11.6 35 0.0 24 8   100.77     LegendNANA
11:00 4.1 -11.8 30 0.0 24 13   100.68     LegendNANA
12:00 4.9 -12.6 27 0.0 25 19   100.58     LegendNANA
13:00 6.1 -13.0 24 0.0 22 16   100.48     LegendNANA
14:00 7.1 -13.1 22 0.0 21 10   100.39     LegendNANA
15:00 7.8 -13.1 21 0.0 24 9   100.28     LegendNANA
16:00 8.4 -13.1 20 0.0 22 8   100.23     LegendNANA
17:00 8.6 -14.1 19 0.0 27 11   100.21     LegendNANA
18:00 8.2 -14.3 19 0.0 25 13   100.18     LegendNANA
19:00 3.2 -3.3 63 0.0 4 16   100.24     LegendNANA
20:00 1.0 -2.7 76 0.0 4 17   100.29     LegendNANA
21:00 0.1 -2.7 81 0.0 3 11   100.30     LegendNANA
22:00 -0.7 -3.4 82 0.0 2 9   100.32   -4 LegendNANA
23:00 -1.0 -3.3 84 0.0 1 7   100.32   -4 LegendNANA

Notes on Data Quality.

Legend

  • E = Estimated
  • M = Missing
  • NA = Not Available*
  • [empty] = Indicates an unobserved value
Date modified: